Simultaneous Nadir Overpasses (SNOs) Predictions

Prediction of SNOs between NOAA-19 and TERRA Satellite Orbit:

Table of predicted SNOs for the next 14.0 days since TLE Epoch: 6/22/2019
Index Date (NOAA-19) Time (NOAA-19) Lat,Lon (NOAA-19) SZA (NOAA-19 ) Date (TERRA) Time (TERRA) Lat,Lon (TERRA) SZA (TERRA ) Distance(km) Time Diff (sec)
1 06/22/2019 16:59:38 -78.49, 127.33 124.10 06/22/2019 17:00:19 -78.49, 127.30 124.09 0.93 41
2 06/22/2019 17:50:33 78.46, -65.25 55.89 06/22/2019 17:49:46 78.45, -65.29 55.86 1.93 47
3 06/24/2019 22:32:59 78.51,-136.09 55.94 06/24/2019 22:34:01 78.50,-136.06 55.96 0.85 62
4 06/24/2019 23:24:03 -78.46, 31.46 124.08 06/24/2019 23:23:29 -78.47, 31.40 124.09 1.60 34
5 06/27/2019 04:06:32 -78.61, -40.08 123.96 06/27/2019 04:07:45 -78.49, -39.60 124.02 17.80 73
6 06/27/2019 04:57:24 78.49, 128.00 56.00 06/27/2019 04:57:11 78.48, 128.00 55.98 2.11 13
7 06/29/2019 10:30:54 -78.49,-135.27 123.91 06/29/2019 10:30:54 -78.50,-135.32 123.91 1.28 0
8 07/01/2019 16:04:14 78.49, -38.53 56.23 07/01/2019 16:04:35 78.53, -38.57 56.27 4.36 21
9 07/01/2019 16:55:16 -78.41, 129.27 123.80 07/01/2019 16:54:02 -78.51, 128.94 123.76 13.32 74
10 07/03/2019 21:37:44 -78.53, 57.91 123.59 07/03/2019 21:38:18 -78.51, 57.89 123.60 2.38 34
11 07/03/2019 22:28:38 78.48,-134.46 56.40 07/03/2019 22:27:44 78.49,-134.56 56.38 2.66 54
12 07/06/2019 03:11:04 78.53, 154.67 56.61 07/06/2019 03:11:59 78.53, 154.58 56.63 2.00 55




NCC Satellite Simultaneous Nadir Overpasses (SNOs) Prediction Service
